Wind_Speed
39 42 49 51 46 32 37 48 26 42 38 39 36 30 23 25 6 12 9 19 18 20 25 27 26 24 25 26 27 28 28 27 26 27 27 27 29 32 35 35 38 40 40 41
43 37 32 27 27 39 30 28 38 42 39 34 31 15 17 16 11 13 12 17 18 20 20 21 21 21 23 25 26 26 26 26 26 27 27 29 31 33 34 37 39 40 40 40
27 35 25 10 10 22 27 28 22 31 14 14 8 10 5 5 14 18 16 14 17 16 15 15 16 19 21 23 24 24 25 25 26 27 28 29 31 32 34 37 38 39 39 39
22 21 5 17 20 11 13 18 24 27 22 10 13 5 9 13 17 17 16 16 17 16 16 16 17 19 21 21 21 22 23 24 25 26 26 28 29 32 35 36 37 37 38 41
7 13 11 17 19 17 5 8 12 13 8 2 1 13 19 20 20 18 17 16 14 13 15 16 17 18 17 18 19 20 21 21 21 22 24 26 30 32 33 35 35 36 39 41
11 5 3 12 13 7 9 11 14 18 16 16 13 18 18 21 22 22 20 17 15 16 16 16 15 15 15 15 16 17 17 17 18 21 25 27 29 31 33 33 35 38 39 42
15 5 7 10 9 7 6 3 13 11 10 12 17 18 13 11 11 13 16 17 17 16 13 12 12 13 13 13 13 13 14 16 19 22 25 27 29 30 31 34 37 39 40 42
9 6 3 6 1 4 4 1 5 13 17 11 10 15 14 16 17 15 15 15 15 13 12 11 11 10 10 10 11 13 15 18 21 23 25 27 28 30 33 35 37 40 41 42
6 2 0 5 3 3 3 3 3 8 14 14 12 11 13 15 14 12 12 12 13 13 11 10 10 10 10 10 12 14 17 19 21 23 24 25 28 31 34 37 39 41 44 45
6 3 8 10 2 3 5 5 4 3 10 14 15 15 14 15 13 13 13 13 11 10 10 10 9 9 10 11 13 16 18 19 21 22 24 27 29 31 34 37 40 42 45 47
7 8 11 6 7 1 2 6 5 5 10 15 17 15 11 12 12 13 12 12 12 11 10 9 9 9 10 12 14 16 18 20 21 23 25 27 30 33 35 38 42 45 47 49
4 5 5 2 6 2 1 4 9 10 10 17 16 11 12 12 13 12 11 11 10 9 8 8 8 9 10 13 15 17 18 20 21 24 26 28 31 33 37 38 40 43 46 49
12 7 6 4 9 5 6 6 5 8 11 9 14 12 13 11 12 11 10 8 7 6 6 6 7 10 12 14 15 16 17 19 22 24 27 30 33 35 35 34 39 43 46 48
16 14 13 12 11 6 8 7 5 4 9 12 9 11 11 10 7 6 6 5 5 5 6 7 9 11 12 13 14 16 18 20 23 26 29 32 34 36 39 42 44 43 45 47
10 12 8 8 19 11 10 12 8 9 8 10 11 10 9 6 5 5 5 6 6 6 7 7 8 10 11 13 15 17 19 22 25 28 31 33 35 38 40 42 45 47 47 43
10 13 9 6 11 9 6 13 11 11 10 10 9 8 7 6 6 6 7 6 5 5 5 7 8 10 12 14 16 19 22 24 27 30 32 34 36 38 41 44 46 46 43 42
15 14 8 9 9 10 10 14 13 10 10 11 10 8 5 4 7 6 5 4 3 4 6 8 10 12 14 16 19 21 24 26 29 31 33 35 37 40 43 45 45 43 41 40
9 9 12 10 6 8 10 14 14 13 11 11 11 5 5 7 6 4 2 2 4 6 9 11 13 14 16 18 21 23 25 28 30 32 33 35 39 42 44 43 42 42 40 37
14 13 12 12 12 11 10 12 15 15 14 10 5 5 6 6 4 2 2 3 6 9 11 13 14 16 18 20 22 25 27 29 31 33 35 38 40 42 42 41 41 40 38 37
16 16 16 15 14 14 13 15 15 17 14 10 9 6 6 4 3 2 3 6 9 11 13 14 16 18 20 22 24 26 29 30 32 34 37 40 41 41 39 40 39 38 36 34
20 17 17 16 14 17 17 16 16 15 10 9 8 8 5 3 2 3 6 9 11 13 14 16 17 20 22 24 26 28 30 32 34 37 39 40 40 38 38 38 38 36 34 30
21 20 17 16 16 17 19 19 18 17 16 11 8 6 5 3 3 6 9 11 13 14 15 17 19 21 23 25 27 29 31 34 36 39 40 40 38 37 38 37 35 33 30 27
17 18 19 18 18 16 17 19 17 14 12 11 9 7 4 4 5 9 12 13 14 15 16 18 21 23 25 27 28 31 33 36 38 40 40 37 37 37 37 35 33 29 27 25
17 21 21 21 21 20 18 12 14 16 14 11 8 6 4 5 8 11 12 13 14 16 18 21 23 25 27 28 30 33 36 38 40 39 37 36 37 36 35 32 29 27 25 20
19 18 18 18 22 19 13 12 16 15 12 10 7 4 5 8 11 11 12 13 16 18 21 23 25 27 28 30 33 36 38 39 39 36 36 36 35 34 31 28 27 24 18 12
19 17 16 17 19 16 18 17 14 13 11 9 6 4 8 10 10 11 13 15 18 21 23 25 27 28 30 32 35 37 39 38 35 35 35 35 33 31 28 27 23 17 10 5
21 19 21 25 22 21 19 16 14 13 10 7 4 8 9 9 10 12 14 17 20 23 25 27 28 30 32 34 36 38 36 35 35 35 33 32 30 28 26 21 14 7 3 3
Wind_Direction
286 298 299 276 261 254 228 238 233 253 251 266 273 283 282 301 241 174 177 166 166 173 182 190 197 203 210 219 219 219 224 232 241 250 260 270 279 285 291 298 303 305 307 309
292 309 310 299 271 248 245 248 246 244 258 260 280 261 288 296 175 165 166 165 165 171 182 191 201 212 217 215 216 222 230 239 248 258 266 274 281 286 295 301 303 305 307 309
291 315 316 312 320 239 247 246 257 234 257 246 263 322 311 173 144 149 156 171 170 173 183 196 206 209 209 212 218 228 237 246 256 264 270 276 282 292 298 300 302 306 309 313
287 326 347 337 354 360 252 251 233 239 264 286 322 305 166 143 147 153 154 168 170 179 184 188 194 199 203 212 223 235 244 252 259 265 272 279 290 296 296 300 305 309 312 314
289 314 306 7 356 5 0 357 242 228 209 169 324 128 140 139 138 137 138 145 153 168 182 192 196 200 207 219 230 239 247 254 261 268 278 288 291 293 299 305 309 312 313 316
306 310 323 339 3 28 37 60 104 110 107 113 118 131 131 135 137 139 142 148 161 172 180 187 197 204 214 224 233 240 248 258 270 281 286 287 294 301 304 308 310 313 316 316
256 287 299 349 351 16 19 20 161 164 150 135 137 141 133 133 148 158 166 171 176 182 187 196 204 212 221 229 237 248 262 272 278 282 289 296 300 304 307 310 313 314 317 320
213 242 276 15 110 292 4 57 210 210 209 208 179 174 172 184 181 181 187 189 192 193 201 208 213 219 225 234 248 261 270 278 284 289 294 300 305 307 310 311 313 316 319 320
225 278 87 35 78 8 12 353 305 232 221 210 179 189 195 190 183 184 192 197 195 200 209 214 215 215 228 246 260 272 278 283 289 296 302 305 307 310 310 314 317 318 320 321
285 313 265 296 265 60 50 7 35 143 171 180 175 175 177 182 191 197 200 199 206 213 212 207 214 233 250 264 272 277 283 291 299 303 304 306 307 311 315 317 319 321 321 322
310 310 262 249 205 277 82 114 96 104 148 166 169 178 171 178 187 195 198 201 197 194 199 212 230 248 260 269 278 286 295 300 301 302 303 307 313 316 318 320 322 322 324 324
307 358 157 109 165 170 172 117 118 116 152 160 152 172 174 178 180 179 178 180 183 193 210 230 243 256 272 284 291 295 298 299 300 303 310 314 316 318 321 323 324 323 323 323
246 259 251 179 156 151 130 118 109 117 122 134 140 146 147 154 154 158 164 176 193 209 221 241 264 278 283 288 292 293 297 301 307 313 315 316 317 319 321 323 323 322 322 323
237 249 241 218 182 166 195 178 156 174 142 129 131 141 143 147 155 167 184 193 200 216 240 258 268 276 284 289 296 303 307 312 315 316 316 318 320 322 323 323 323 324 323 323
204 195 197 244 205 187 215 191 188 178 160 156 156 158 157 162 177 187 192 198 213 233 251 269 283 291 300 306 309 312 315 317 317 318 318 320 322 323 323 323 323 325 325 325
202 204 180 203 169 183 200 166 178 177 170 168 170 172 177 186 188 189 196 212 235 258 278 291 304 311 312 314 316 317 317 319 318 318 319 322 323 323 322 324 325 325 326 328
194 170 184 174 157 166 171 167 171 177 179 174 169 161 167 196 191 193 206 230 262 290 309 317 317 319 319 318 317 319 320 318 318 320 322 323 322 323 324 325 326 327 329 329
171 158 162 173 177 188 184 180 180 177 174 172 169 203 233 195 194 208 242 288 308 319 322 323 323 321 319 319 320 319 318 319 320 322 322 322 324 325 325 326 327 327 328 330
207 197 190 189 183 187 191 197 187 175 178 191 198 219 196 195 206 235 276 310 322 326 326 322 321 322 320 319 320 320 321 321 321 321 323 324 326 326 326 326 327 329 330 331
216 212 206 198 192 186 196 193 187 184 187 186 200 197 194 204 223 257 310 321 323 322 321 324 325 322 321 322 322 321 320 320 321 323 324 326 326 326 326 328 329 330 331 331
222 212 204 203 202 194 185 193 188 186 195 192 194 192 199 207 233 300 315 319 322 324 327 327 325 323 323 322 321 320 321 322 323 324 325 326 326 326 327 329 329 330 330 332
219 221 220 205 200 198 186 185 190 204 199 186 179 191 198 215 280 308 316 322 329 329 327 325 324 322 321 320 321 322 323 323 325 326 327 326 325 327 328 329 329 329 330 333
205 200 191 195 191 195 201 188 198 205 179 172 187 192 207 258 300 318 325 329 326 325 324 324 323 321 321 322 323 323 323 325 327 327 326 325 327 328 328 328 329 329 331 333
190 189 192 195 186 197 194 206 200 188 171 182 189 202 244 297 317 323 323 323 323 324 325 324 323 322 323 323 323 324 326 327 327 326 326 327 327 327 326 327 327 327 329 330
177 186 190 200 203 184 184 185 170 167 179 185 195 225 286 311 315 318 322 324 326 325 324 324 323 323 324 325 326 326 326 327 326 327 326 327 326 325 326 326 325 325 326 326
181 187 189 184 182 177 164 164 172 179 185 196 215 275 305 309 314 321 324 326 325 325 324 324 324 325 325 326 325 326 327 327 327 327 327 326 325 326 328 327 324 325 325 337
181 191 191 186 174 170 173 178 184 190 197 208 263 294 298 308 317 321 323 324 325 325 325 324 324 325 326 325 326 327 327 327 326 327 326 327 327 330 333 330 331 335 350 15
Height
2965 2958 2949 2944 2944 2945 2947 2945 2951 2941 2946 2946 2950 2954 2954 2953 2952 2956 2963 2969 2974 2981 2988 2996 3003 3008 3012 3018 3023 3027 3030 3033 3036 3037 3038 3038 3038 3036 3035 3032 3028 3024 3019 3014
2956 2952 2942 2934 2931 2935 2939 2941 2941 2943 2940 2946 2947 2949 2951 2949 2952 2957 2962 2969 2976 2983 2990 2996 3001 3006 3011 3015 3020 3024 3027 3030 3031 3032 3033 3033 3032 3030 3028 3024 3020 3016 3011 3006
2953 2948 2941 2934 2929 2929 2932 2936 2937 2940 2940 2945 2945 2944 2947 2950 2954 2958 2964 2972 2978 2985 2991 2996 3001 3005 3010 3014 3017 3021 3024 3026 3027 3027 3028 3027 3026 3024 3020 3017 3012 3007 3002 2996
2957 2951 2945 2940 2932 2925 2928 2931 2935 2936 2937 2940 2944 2945 2947 2950 2955 2961 2966 2974 2979 2985 2990 2995 3000 3004 3007 3011 3015 3017 3019 3021 3022 3022 3022 3021 3020 3017 3013 3009 3004 2999 2994 2989
2961 2956 2950 2943 2940 2933 2931 2930 2928 2933 2940 2944 2945 2946 2949 2953 2958 2965 2970 2976 2981 2986 2991 2995 2999 3002 3006 3009 3011 3014 3015 3016 3017 3017 3017 3015 3013 3009 3006 3002 2997 2992 2987 2982
2964 2959 2954 2949 2945 2941 2939 2938 2936 2938 2942 2944 2947 2952 2956 2958 2962 2966 2971 2977 2982 2987 2991 2994 2998 3001 3004 3006 3008 3010 3011 3012 3012 3012 3011 3009 3005 3002 2999 2995 2990 2985 2980 2974
2964 2962 2955 2952 2947 2946 2945 2951 2947 2947 2948 2950 2954 2956 2959 2964 2967 2970 2975 2979 2983 2987 2991 2994 2997 2999 3001 3003 3005 3006 3007 3008 3007 3006 3004 3002 2999 2996 2992 2988 2983 2977 2973 2966
2961 2960 2957 2954 2953 2951 2950 2948 2948 2949 2950 2952 2957 2959 2962 2968 2971 2974 2977 2980 2983 2987 2990 2992 2995 2997 2999 3001 3003 3004 3004 3003 3002 3000 2999 2996 2993 2989 2985 2980 2976 2970 2964 2959
2957 2955 2954 2954 2954 2953 2950 2949 2947 2946 2947 2951 2955 2959 2964 2968 2972 2975 2978 2980 2983 2986 2989 2992 2994 2996 2998 2999 2999 2999 2999 2998 2997 2995 2993 2990 2987 2983 2979 2974 2968 2962 2955 2949
2955 2954 2954 2953 2953 2953 2952 2951 2949 2948 2949 2952 2958 2963 2966 2969 2972 2975 2977 2980 2983 2986 2988 2990 2992 2994 2995 2996 2996 2996 2995 2994 2992 2990 2988 2985 2982 2978 2973 2967 2961 2954 2946 2940
2953 2951 2950 2952 2952 2953 2953 2953 2952 2951 2952 2955 2959 2963 2966 2969 2972 2974 2977 2979 2982 2984 2987 2989 2991 2992 2993 2993 2992 2991 2990 2989 2987 2985 2983 2980 2975 2971 2966 2959 2951 2944 2937 2930
2951 2951 2950 2951 2952 2952 2953 2954 2954 2955 2956 2957 2960 2964 2967 2969 2971 2974 2977 2980 2982 2984 2986 2988 2989 2989 2989 2989 2988 2988 2987 2985 2983 2981 2977 2974 2970 2965 2958 2952 2945 2938 2931 2923
2948 2949 2950 2951 2951 2952 2953 2954 2955 2956 2957 2959 2960 2964 2967 2969 2972 2974 2977 2980 2981 2983 2984 2985 2986 2986 2987 2986 2986 2985 2983 2981 2979 2976 2972 2967 2962 2957 2953 2949 2940 2932 2924 2917
2943 2945 2947 2949 2950 2952 2953 2955 2956 2957 2959 2960 2963 2965 2968 2971 2973 2975 2977 2979 2980 2982 2983 2984 2984 2985 2984 2984 2982 2981 2979 2977 2973 2969 2965 2960 2955 2949 2943 2936 2931 2927 2919 2910
2940 2942 2944 2945 2947 2951 2953 2954 2957 2959 2961 2962 2964 2967 2969 2971 2973 2975 2976 2978 2980 2981 2982 2982 2982 2982 2981 2980 2979 2977 2974 2971 2967 2963 2959 2953 2948 2942 2936 2930 2923 2915 2908 2901
2939 2941 2944 2945 2946 2950 2951 2952 2957 2960 2961 2964 2966 2968 2970 2972 2973 2975 2976 2978 2979 2980 2980 2980 2979 2979 2978 2976 2974 2971 2968 2965 2961 2957 2952 2946 2941 2935 2929 2922 2915 2907 2900 2892
2937 2939 2943 2945 2947 2950 2952 2954 2958 2960 2962 2964 2967 2969 2971 2972 2973 2975 2976 2976 2977 2977 2977 2977 2976 2975 2973 2971 2969 2966 2963 2959 2955 2951 2945 2940 2935 2929 2921 2914 2907 2899 2893 2885
2938 2940 2942 2945 2948 2950 2951 2954 2956 2959 2962 2964 2966 2968 2969 2971 2972 2973 2974 2975 2975 2975 2975 2974 2972 2971 2969 2967 2964 2961 2957 2953 2949 2944 2940 2934 2928 2921 2914 2907 2899 2892 2886 2880
2937 2939 2941 2944 2946 2949 2951 2953 2956 2959 2961 2964 2966 2967 2968 2970 2971 2972 2973 2973 2973 2973 2972 2971 2969 2967 2965 2962 2959 2955 2952 2948 2943 2938 2933 2927 2921 2914 2907 2900 2893 2886 2880 2873
2935 2937 2940 2942 2944 2947 2950 2952 2955 2957 2960 2962 2965 2966 2968 2969 2971 2971 2971 2971 2971 2970 2969 2967 2965 2963 2961 2958 2954 2950 2946 2942 2937 2932 2926 2920 2913 2907 2900 2893 2886 2880 2874 2868
2931 2935 2937 2940 2943 2945 2948 2951 2954 2957 2960 2962 2964 2966 2968 2969 2969 2970 2970 2969 2969 2967 2965 2963 2962 2959 2956 2953 2949 2945 2941 2936 2931 2925 2919 2912 2906 2900 2894 2887 2881 2875 2869 2864
2928 2932 2935 2938 2941 2944 2947 2950 2953 2955 2958 2960 2963 2965 2967 2967 2968 2968 2968 2967 2965 2963 2962 2960 2958 2955 2952 2948 2944 2940 2935 2930 2924 2918 2911 2905 2898 2893 2887 2881 2875 2870 2864 2859
2925 2929 2933 2936 2939 2943 2945 2948 2951 2954 2957 2960 2962 2964 2965 2966 2966 2965 2964 2963 2961 2960 2959 2956 2953 2950 2947 2943 2938 2933 2928 2923 2917 2910 2904 2898 2892 2886 2881 2875 2870 2864 2860 2856
2923 2927 2931 2934 2937 2941 2944 2947 2949 2952 2956 2959 2961 2963 2964 2964 2963 2962 2961 2960 2959 2957 2955 2952 2949 2945 2941 2937 2932 2927 2921 2915 2909 2903 2897 2891 2886 2880 2875 2869 2865 2860 2856 2852
2922 2926 2930 2933 2936 2939 2942 2945 2949 2952 2955 2958 2960 2961 2961 2960 2960 2959 2958 2957 2955 2953 2950 2947 2943 2939 2935 2931 2925 2920 2914 2908 2902 2897 2891 2885 2880 2875 2869 2864 2859 2855 2852 2849
2922 2926 2929 2932 2936 2939 2942 2946 2949 2952 2954 2956 2958 2958 2958 2958 2957 2956 2955 2953 2951 2949 2946 2942 2938 2934 2929 2924 2919 2913 2907 2901 2896 2891 2885 2879 2874 2869 2863 2858 2854 2850 2848 2848
2921 2924 2927 2930 2934 2938 2942 2945 2949 2951 2953 2954 2955 2956 2955 2954 2953 2952 2951 2949 2947 2944 2940 2936 2932 2928 2923 2918 2913 2907 2901 2895 2890 2885 2880 2874 2868 2863 2858 2853 2850 2848 2848 2848